Flag for Finland Weather past 2 weeks in Helsinki, Finland

Now
59 °F

Scattered clouds.


Feels Like: 58 °F
Forecast: 53 / 67 °F
Wind: 7 mph from Southwest

Location: Helsinki Malmi Airport

Current Time: Sep 3, 2014 at 8:50:50 AM

Latest Report: Sep 3, 2014 at 8:20 AM


Visibility: N/A

Pressure: 30.33 "Hg

Humidity: 82%

Dew point: 54 °F

Location of HelsinkiLocation

Historic Weather in Helsinki — Graph

°F

Helsinki temperature yesterday

Maximum temperature yesterday: 61 °F (at 12:20 PM)
Minimum temperature yesterday: 39 °F (at 6:50 AM)
Average temperature yesterday: 53 °F

Past Weeks' High & Low Weather Summary

 TemperatureHumidityPressure
High64 °F (Aug 21, 12:20 PM)100% (Aug 20, 9:50 PM)30.33 "Hg (Aug 20, 9:50 PM)
Low39 °F (Sep 2, 6:50 AM)48% (Aug 30, 3:20 PM)29.30 "Hg (Aug 26, 9:20 AM)
Average56 °F84%29.80 "Hg
* Reported Aug 19 7:20 AM — Sep 3 7:20 AM, Helsinki, Weather by CustomWeather, © 2014

Note: Actual official high and low records may vary slightly from our data, if they occured in-between our weather recording intervals... More about our weather records

Advertising

Helsinki weather history for previous 24 hours

 ConditionsComfort  
Time TempWeatherWind HumidityBarometerVisibility
7:20 AM
Sep 3
57 °FPassing clouds.5 mph88%30.33 "HgN/A
6:50 AM55 °FClear.5 mph94%30.33 "Hg10 mi
6:20 AM55 °FClear.2 mph88%30.33 "Hg10 mi
5:50 AM54 °FPassing clouds.2 mph100%30.33 "HgN/A
5:20 AM52 °FPartly cloudy.No wind100%30.33 "HgN/A
4:50 AM50 °FPassing clouds.1 mph94%30.30 "HgN/A
4:20 AM52 °FClear.1 mph94%30.30 "Hg10 mi
3:50 AM54 °FClear.1 mph94%30.30 "Hg10 mi
3:20 AM54 °FClear.1 mph94%30.33 "Hg10 mi
2:50 AM55 °FClear.2 mph82%30.33 "Hg10 mi
2:20 AM54 °FClear.3 mph88%30.33 "Hg10 mi
1:50 AM55 °FClear.2 mph88%30.33 "Hg10 mi
1:20 AM57 °FClear.3 mph82%30.30 "Hg10 mi
12:50 AM57 °FClear.3 mph77%30.33 "Hg10 mi
12:20 AM57 °FClear.2 mph77%30.30 "Hg10 mi
11:50 PM
Sep 2
57 °FClear.2 mph77%30.30 "Hg10 mi
11:20 PM57 °FClear.2 mph77%30.30 "Hg10 mi
10:50 PM55 °FClear.1 mph77%30.30 "Hg10 mi
10:20 PM55 °FClear.No wind77%30.30 "Hg10 mi
9:50 PM55 °FClear.No wind77%30.30 "Hg10 mi
9:20 PM55 °FSunny.1 mph77%30.30 "Hg10 mi
8:50 PM57 °FSunny.2 mph67%30.27 "Hg10 mi
8:20 PM57 °FSunny.2 mph67%30.27 "Hg10 mi
7:50 PM59 °FSunny.2 mph63%30.27 "Hg10 mi
7:20 PM59 °FSunny.5 mph59%30.27 "Hg10 mi
6:50 PM59 °FPassing clouds.6 mph59%30.27 "HgN/A
6:20 PM59 °FPartly sunny.7 mph72%30.27 "HgN/A
5:50 PM59 °FPartly sunny.8 mph72%30.27 "HgN/A
5:20 PM61 °FPartly sunny.7 mph68%30.27 "HgN/A
4:50 PM59 °FPartly sunny.9 mph72%30.27 "HgN/A
4:20 PM61 °FPartly sunny.8 mph68%30.27 "HgN/A
3:50 PM59 °FPartly sunny.7 mph72%30.27 "HgN/A
3:20 PM59 °FPartly sunny.9 mph72%30.27 "HgN/A
2:50 PM61 °FScattered clouds.7 mph68%30.27 "HgN/A
2:20 PM61 °FScattered clouds.8 mph68%30.27 "HgN/A
1:50 PM61 °FBroken clouds.8 mph63%30.27 "HgN/A
1:20 PM61 °FPartly sunny.5 mph63%30.27 "HgN/A
12:50 PM59 °FPartly sunny.6 mph63%30.27 "HgN/A
12:20 PM61 °FPartly sunny.2 mph68%30.27 "HgN/A
11:50 AM59 °FPartly sunny.3 mph63%30.27 "HgN/A
11:20 AM57 °FPartly sunny.3 mph72%30.27 "HgN/A
10:50 AM57 °FSunny.2 mph72%30.27 "Hg10 mi
10:20 AM57 °FSunny.1 mph77%30.27 "Hg10 mi
9:50 AM55 °FSunny.No wind82%30.27 "Hg10 mi
9:20 AM52 °FSunny.1 mph88%30.27 "Hg10 mi
8:50 AM50 °FSunny.2 mph94%30.27 "Hg10 mi
8:20 AM48 °FSunny.7 mph100%30.27 "Hg10 mi
Weather by CustomWeather, © 2014

See weather overviewHow to use our weather pages